date,time,SUV Intensity [MED/Hr],UV Index,Daily total [MED],Since Last [MED]
15/02/2023,00:02:59,0.000,0.0,0.0,0.0
15/02/2023,00:03:58,0.000,0.0,0.0,0.0
15/02/2023,00:04:58,-0.001,0.0,0.0,0.0
15/02/2023,00:05:59,0.000,0.0,0.0,0.0
15/02/2023,00:06:59,0.000,0.0,0.0,0.0
15/02/2023,00:07:59,0.000,0.0,0.0,0.0
15/02/2023,00:08:59,0.001,0.0,0.0,0.0
15/02/2023,00:09:58,-0.001,0.0,0.0,0.0
15/02/2023,00:10:58,0.000,0.0,0.0,0.0
15/02/2023,00:11:58,0.000,0.0,0.0,0.0
15/02/2023,00:12:59,0.000,0.0,0.0,0.0
15/02/2023,00:13:59,0.001,0.0,0.0,0.0
15/02/2023,00:14:59,0.000,0.0,0.0,0.0
15/02/2023,00:15:59,0.000,0.0,0.0,0.0
15/02/2023,00:16:58,0.001,0.0,0.0,0.0
15/02/2023,00:17:59,0.000,0.0,0.0,0.0
15/02/2023,00:18:59,-0.000,0.0,0.0,0.0
15/02/2023,00:19:59,0.001,0.0,0.0,0.0
15/02/2023,00:20:59,0.000,0.0,0.0,0.0
15/02/2023,00:21:59,0.001,0.0,0.0,0.0
15/02/2023,00:22:59,0.000,0.0,0.0,0.0
15/02/2023,00:23:58,0.000,0.0,0.0,0.0
15/02/2023,00:24:59,0.000,0.0,0.0,0.0
15/02/2023,00:25:59,-0.001,0.0,0.0,0.0
15/02/2023,00:26:58,-0.001,0.0,0.0,0.0
15/02/2023,00:27:58,-0.001,0.0,0.0,0.0
15/02/2023,00:28:58,0.000,0.0,0.0,0.0
15/02/2023,00:29:59,0.000,0.0,0.0,0.0
15/02/2023,00:30:59,0.000,0.0,0.0,0.0
15/02/2023,00:31:58,0.000,0.0,0.0,0.0
15/02/2023,00:32:59,0.001,0.0,0.0,0.0
15/02/2023,00:33:59,0.000,0.0,0.0,0.0
15/02/2023,00:34:59,0.001,0.0,0.0,0.0
15/02/2023,00:35:59,0.001,0.0,0.0,0.0
15/02/2023,00:36:58,0.001,0.0,0.0,0.0
15/02/2023,00:37:59,0.001,0.0,0.0,0.0
15/02/2023,00:38:59,0.000,0.0,0.0,0.0
15/02/2023,00:39:59,-0.000,0.0,0.0,0.0
15/02/2023,00:40:59,0.000,0.0,0.0,0.0
15/02/2023,00:41:58,-0.000,0.0,0.0,0.0
15/02/2023,00:42:58,0.001,0.0,0.0,0.0
15/02/2023,00:43:58,0.000,0.0,0.0,0.0
15/02/2023,00:44:58,0.000,0.0,0.0,0.0
15/02/2023,00:45:58,0.001,0.0,0.0,0.0
15/02/2023,00:46:59,0.001,0.0,0.0,0.0
15/02/2023,00:47:59,0.000,0.0,0.0,0.0
15/02/2023,00:48:59,0.000,0.0,0.0,0.0
15/02/2023,00:49:59,0.001,0.0,0.0,0.0
15/02/2023,00:50:59,0.000,0.0,0.0,0.0
15/02/2023,00:51:59,-0.000,0.0,0.0,0.0
15/02/2023,00:52:58,0.001,0.0,0.0,0.0
15/02/2023,00:53:59,0.000,0.0,0.0,0.0
15/02/2023,00:54:59,0.000,0.0,0.0,0.0
15/02/2023,00:55:59,0.000,0.0,0.0,0.0
15/02/2023,00:56:59,-0.001,0.0,0.0,0.0
15/02/2023,00:57:59,0.000,0.0,0.0,0.0
15/02/2023,00:58:59,0.001,0.0,0.0,0.0
15/02/2023,00:59:58,0.001,0.0,0.0,0.0
15/02/2023,01:00:58,-0.000,0.0,0.0,0.0
15/02/2023,01:01:58,0.000,0.0,0.0,0.0
15/02/2023,01:02:59,0.001,0.0,0.0,0.0
15/02/2023,01:03:59,0.000,0.0,0.0,0.0
15/02/2023,01:04:59,0.000,0.0,0.0,0.0
15/02/2023,01:05:58,0.001,0.0,0.0,0.0
15/02/2023,01:06:58,0.001,0.0,0.0,0.0
15/02/2023,01:07:59,0.001,0.0,0.0,0.0
15/02/2023,01:08:58,0.001,0.0,0.0,0.0
15/02/2023,01:09:59,0.001,0.0,0.0,0.0
15/02/2023,01:10:59,0.000,0.0,0.0,0.0
15/02/2023,01:11:59,0.001,0.0,0.0,0.0
15/02/2023,01:12:59,0.002,0.0,0.0,0.0
15/02/2023,01:13:59,0.001,0.0,0.0,0.0
15/02/2023,01:14:59,0.000,0.0,0.0,0.0
15/02/2023,01:15:58,0.000,0.0,0.0,0.0
15/02/2023,01:16:59,-0.000,0.0,0.0,0.0
15/02/2023,01:17:59,0.001,0.0,0.0,0.0
15/02/2023,01:18:59,0.001,0.0,0.0,0.0
15/02/2023,01:19:58,0.000,0.0,0.0,0.0
15/02/2023,01:20:58,0.001,0.0,0.0,0.0
15/02/2023,01:21:59,0.001,0.0,0.0,0.0
15/02/2023,01:22:59,0.001,0.0,0.0,0.0
15/02/2023,01:23:59,0.001,0.0,0.0,0.0
15/02/2023,01:24:59,0.002,0.0,0.0,0.0
15/02/2023,01:25:59,0.001,0.0,0.0,0.0
15/02/2023,01:26:59,0.000,0.0,0.0,0.0
15/02/2023,01:27:59,0.001,0.0,0.0,0.0
15/02/2023,01:28:58,0.001,0.0,0.0,0.0
15/02/2023,01:29:58,0.001,0.0,0.0,0.0
15/02/2023,01:31:00,0.001,0.0,0.0,0.0
15/02/2023,01:31:58,0.000,0.0,0.0,0.0
15/02/2023,01:32:59,0.001,0.0,0.0,0.0
15/02/2023,01:33:59,0.001,0.0,0.0,0.0
15/02/2023,01:34:59,0.000,0.0,0.0,0.0
15/02/2023,01:35:59,0.000,0.0,0.0,0.0
15/02/2023,01:36:59,0.000,0.0,0.0,0.0
15/02/2023,01:37:59,0.000,0.0,0.0,0.0
15/02/2023,01:38:59,0.001,0.0,0.0,0.0
15/02/2023,01:39:59,0.001,0.0,0.0,0.0
15/02/2023,01:40:58,0.001,0.0,0.0,0.0
15/02/2023,01:41:59,0.001,0.0,0.0,0.0
15/02/2023,01:42:58,0.001,0.0,0.0,0.0
15/02/2023,01:43:59,0.001,0.0,0.0,0.0
15/02/2023,01:44:58,0.001,0.0,0.0,0.0
15/02/2023,01:45:58,0.001,0.0,0.0,0.0
15/02/2023,01:46:58,-0.000,0.0,0.0,0.0
15/02/2023,01:47:59,0.001,0.0,0.0,0.0
15/02/2023,01:48:58,0.002,0.0,0.0,0.0
15/02/2023,01:49:59,0.001,0.0,0.0,0.0
15/02/2023,01:50:59,0.001,0.0,0.0,0.0
15/02/2023,01:51:59,0.001,0.0,0.0,0.0
15/02/2023,01:52:59,0.002,0.0,0.0,0.0
15/02/2023,01:53:59,0.001,0.0,0.0,0.0
15/02/2023,01:54:59,0.000,0.0,0.0,0.0
15/02/2023,01:55:59,-0.000,0.0,0.0,0.0
15/02/2023,01:56:58,0.001,0.0,0.0,0.0
15/02/2023,01:57:59,0.001,0.0,0.0,0.0
15/02/2023,01:58:59,0.000,0.0,0.0,0.0
15/02/2023,01:59:59,0.000,0.0,0.0,0.0
15/02/2023,02:00:58,0.001,0.0,0.0,0.0
15/02/2023,02:01:58,0.000,0.0,0.0,0.0
15/02/2023,02:02:59,0.001,0.0,0.0,0.0
15/02/2023,02:03:58,0.000,0.0,0.0,0.0
15/02/2023,02:04:59,0.001,0.0,0.0,0.0
15/02/2023,02:05:59,0.001,0.0,0.0,0.0
15/02/2023,02:06:58,0.001,0.0,0.0,0.0
15/02/2023,02:07:59,0.001,0.0,0.0,0.0
15/02/2023,02:08:59,0.000,0.0,0.0,0.0
15/02/2023,02:09:59,0.001,0.0,0.0,0.0
15/02/2023,02:10:59,0.001,0.0,0.0,0.0
15/02/2023,02:11:59,0.001,0.0,0.0,0.0
15/02/2023,02:12:59,0.001,0.0,0.0,0.0
15/02/2023,02:13:59,0.001,0.0,0.0,0.0
15/02/2023,02:14:59,0.000,0.0,0.0,0.0
15/02/2023,02:15:58,0.001,0.0,0.0,0.0
15/02/2023,02:16:59,0.000,0.0,0.0,0.0
15/02/2023,02:17:59,0.001,0.0,0.0,0.0
15/02/2023,02:18:58,0.001,0.0,0.0,0.0
15/02/2023,02:19:59,-0.000,0.0,0.0,0.0
15/02/2023,02:20:59,0.001,0.0,0.0,0.0
15/02/2023,02:21:59,0.001,0.0,0.0,0.0
15/02/2023,02:22:59,0.001,0.0,0.0,0.0
15/02/2023,02:23:59,0.002,0.0,0.0,0.0
15/02/2023,02:24:58,0.001,0.0,0.0,0.0
15/02/2023,02:25:59,0.001,0.0,0.0,0.0
15/02/2023,02:26:59,0.001,0.0,0.0,0.0
15/02/2023,02:27:58,0.001,0.0,0.0,0.0
15/02/2023,02:28:58,0.001,0.0,0.0,0.0
15/02/2023,02:29:59,0.001,0.0,0.0,0.0
15/02/2023,02:30:59,0.001,0.0,0.0,0.0
15/02/2023,02:31:59,0.001,0.0,0.0,0.0
15/02/2023,02:32:58,0.002,0.0,0.0,0.0
15/02/2023,02:33:59,0.001,0.0,0.0,0.0
15/02/2023,02:34:59,0.001,0.0,0.0,0.0
15/02/2023,02:35:59,0.001,0.0,0.0,0.0
15/02/2023,02:36:58,0.001,0.0,0.0,0.0
15/02/2023,02:37:59,0.001,0.0,0.0,0.0
15/02/2023,02:38:59,0.001,0.0,0.0,0.0
15/02/2023,02:39:59,0.001,0.0,0.0,0.0
15/02/2023,02:40:59,-0.000,0.0,0.0,0.0
15/02/2023,02:41:59,0.001,0.0,0.0,0.0
15/02/2023,02:42:59,0.002,0.0,0.0,0.0
15/02/2023,02:43:59,0.002,0.0,0.0,0.0
15/02/2023,02:44:59,0.001,0.0,0.0,0.0
15/02/2023,02:45:59,0.000,0.0,0.0,0.0
15/02/2023,02:46:59,0.002,0.0,0.0,0.0
15/02/2023,02:47:59,0.001,0.0,0.0,0.0
15/02/2023,02:48:59,0.001,0.0,0.0,0.0
15/02/2023,02:49:59,0.001,0.0,0.0,0.0
15/02/2023,02:50:59,0.002,0.0,0.0,0.0
15/02/2023,02:51:59,0.001,0.0,0.0,0.0
15/02/2023,02:52:59,0.001,0.0,0.0,0.0
15/02/2023,02:53:59,0.001,0.0,0.0,0.0
15/02/2023,02:54:59,0.001,0.0,0.0,0.0
15/02/2023,02:55:59,0.000,0.0,0.0,0.0
15/02/2023,02:56:58,0.001,0.0,0.0,0.0
15/02/2023,02:57:59,0.001,0.0,0.0,0.0
15/02/2023,02:58:59,0.001,0.0,0.0,0.0
15/02/2023,02:59:59,0.001,0.0,0.0,0.0
15/02/2023,03:00:59,0.000,0.0,0.0,0.0
15/02/2023,03:01:59,0.001,0.0,0.0,0.0
15/02/2023,03:02:59,0.001,0.0,0.0,0.0
15/02/2023,03:03:59,0.001,0.0,0.0,0.0
15/02/2023,03:04:59,0.001,0.0,0.0,0.0
15/02/2023,03:05:58,0.001,0.0,0.0,0.0
15/02/2023,03:06:59,0.001,0.0,0.0,0.0
15/02/2023,03:07:59,0.001,0.0,0.0,0.0
15/02/2023,03:08:59,0.001,0.0,0.0,0.0
15/02/2023,03:09:59,0.001,0.0,0.0,0.0
15/02/2023,03:10:59,0.000,0.0,0.0,0.0
15/02/2023,03:12:00,0.001,0.0,0.0,0.0
15/02/2023,03:13:00,0.001,0.0,0.0,0.0
15/02/2023,03:13:59,0.001,0.0,0.0,0.0
15/02/2023,03:14:58,0.001,0.0,0.0,0.0
15/02/2023,03:15:59,0.001,0.0,0.0,0.0
15/02/2023,03:16:59,0.002,0.0,0.0,0.0
15/02/2023,03:17:59,0.001,0.0,0.0,0.0
15/02/2023,03:18:59,0.001,0.0,0.0,0.0
15/02/2023,03:19:59,0.001,0.0,0.0,0.0
15/02/2023,03:20:59,0.000,0.0,0.0,0.0
15/02/2023,03:21:59,0.000,0.0,0.0,0.0
15/02/2023,03:22:59,0.000,0.0,0.0,0.0
15/02/2023,03:23:59,0.001,0.0,0.0,0.0
15/02/2023,03:24:58,0.001,0.0,0.0,0.0
15/02/2023,03:25:59,0.001,0.0,0.0,0.0
15/02/2023,03:26:58,0.001,0.0,0.0,0.0
15/02/2023,03:27:59,0.001,0.0,0.0,0.0
15/02/2023,03:28:59,0.001,0.0,0.0,0.0
15/02/2023,03:29:59,0.001,0.0,0.0,0.0
15/02/2023,03:30:59,0.000,0.0,0.0,0.0
15/02/2023,03:31:59,0.001,0.0,0.0,0.0
15/02/2023,03:32:59,0.000,0.0,0.0,0.0
15/02/2023,03:33:59,0.001,0.0,0.0,0.0
15/02/2023,03:34:59,0.002,0.0,0.0,0.0
15/02/2023,03:35:59,0.001,0.0,0.0,0.0
15/02/2023,03:36:59,0.000,0.0,0.0,0.0
15/02/2023,03:37:59,0.000,0.0,0.0,0.0
15/02/2023,03:38:59,0.001,0.0,0.0,0.0
15/02/2023,03:39:59,0.002,0.0,0.0,0.0
15/02/2023,03:40:59,0.001,0.0,0.0,0.0
15/02/2023,03:41:59,0.001,0.0,0.0,0.0
15/02/2023,03:42:59,0.001,0.0,0.0,0.0
15/02/2023,03:43:59,0.000,0.0,0.0,0.0
15/02/2023,03:44:59,0.001,0.0,0.0,0.0
15/02/2023,03:45:59,0.002,0.0,0.0,0.0
15/02/2023,03:46:59,0.001,0.0,0.0,0.0
15/02/2023,03:47:59,0.001,0.0,0.0,0.0
15/02/2023,03:48:59,0.001,0.0,0.0,0.0
15/02/2023,03:49:58,0.001,0.0,0.0,0.0
15/02/2023,03:50:59,0.001,0.0,0.0,0.0
15/02/2023,03:51:59,0.001,0.0,0.0,0.0
15/02/2023,03:52:58,0.001,0.0,0.0,0.0
15/02/2023,03:53:59,0.000,0.0,0.0,0.0
15/02/2023,03:54:59,0.001,0.0,0.0,0.0
15/02/2023,03:55:59,0.001,0.0,0.0,0.0
15/02/2023,03:56:59,0.001,0.0,0.0,0.0
15/02/2023,03:57:59,0.001,0.0,0.0,0.0
15/02/2023,03:58:59,0.001,0.0,0.0,0.0
15/02/2023,03:59:59,0.001,0.0,0.0,0.0
15/02/2023,04:00:59,0.000,0.0,0.0,0.0
15/02/2023,04:01:59,0.001,0.0,0.0,0.0
15/02/2023,04:02:59,0.001,0.0,0.0,0.0
15/02/2023,04:03:59,0.001,0.0,0.0,0.0
15/02/2023,04:04:59,0.000,0.0,0.0,0.0
15/02/2023,04:05:59,0.000,0.0,0.0,0.0
15/02/2023,04:06:59,0.000,0.0,0.0,0.0
15/02/2023,04:07:59,0.000,0.0,0.0,0.0
15/02/2023,04:08:59,0.000,0.0,0.0,0.0
15/02/2023,04:09:59,0.000,0.0,0.0,0.0
15/02/2023,04:10:59,-0.000,0.0,0.0,0.0
15/02/2023,04:11:59,-0.000,0.0,0.0,0.0
15/02/2023,04:12:59,-0.000,0.0,0.0,0.0
15/02/2023,04:13:59,0.000,0.0,0.0,0.0
15/02/2023,04:14:59,0.000,0.0,0.0,0.0
15/02/2023,04:15:59,0.001,0.0,0.0,0.0
15/02/2023,04:16:59,-0.000,0.0,0.0,0.0
15/02/2023,04:17:59,0.000,0.0,0.0,0.0
15/02/2023,04:18:59,0.001,0.0,0.0,0.0
15/02/2023,04:19:59,0.001,0.0,0.0,0.0
15/02/2023,04:20:59,0.000,0.0,0.0,0.0
15/02/2023,04:21:59,0.000,0.0,0.0,0.0
15/02/2023,04:22:59,0.001,0.0,0.0,0.0
15/02/2023,04:23:59,0.000,0.0,0.0,0.0
15/02/2023,04:24:59,-0.001,0.0,0.0,0.0
15/02/2023,04:25:59,0.000,0.0,0.0,0.0
15/02/2023,04:26:59,0.000,0.0,0.0,0.0
15/02/2023,04:27:59,0.001,0.0,0.0,0.0
15/02/2023,04:28:59,0.000,0.0,0.0,0.0
15/02/2023,04:29:59,0.000,0.0,0.0,0.0
15/02/2023,04:30:59,0.000,0.0,0.0,0.0
15/02/2023,04:31:59,0.001,0.0,0.0,0.0
15/02/2023,04:32:59,0.001,0.0,0.0,0.0
15/02/2023,04:33:59,-0.001,0.0,0.0,0.0
15/02/2023,04:34:59,0.001,0.0,0.0,0.0
15/02/2023,04:35:59,-0.001,0.0,0.0,0.0
15/02/2023,04:36:59,-0.000,0.0,0.0,0.0
15/02/2023,04:37:59,0.000,0.0,0.0,0.0
15/02/2023,04:39:00,0.000,0.0,0.0,0.0
15/02/2023,04:40:00,-0.001,0.0,0.0,0.0
15/02/2023,04:40:59,0.000,0.0,0.0,0.0
15/02/2023,04:41:59,-0.001,0.0,0.0,0.0
15/02/2023,04:42:59,0.000,0.0,0.0,0.0
15/02/2023,04:43:59,-0.001,0.0,0.0,0.0
15/02/2023,04:44:59,0.001,0.0,0.0,0.0
15/02/2023,04:45:59,0.000,0.0,0.0,0.0
15/02/2023,04:46:59,0.000,0.0,0.0,0.0
15/02/2023,04:47:59,0.000,0.0,0.0,0.0
15/02/2023,04:48:59,-0.000,0.0,0.0,0.0
15/02/2023,04:49:59,0.001,0.0,0.0,0.0
15/02/2023,04:50:59,0.000,0.0,0.0,0.0
15/02/2023,04:51:59,0.000,0.0,0.0,0.0
15/02/2023,04:52:59,0.000,0.0,0.0,0.0
15/02/2023,04:53:59,-0.000,0.0,0.0,0.0
15/02/2023,04:54:59,0.000,0.0,0.0,0.0
15/02/2023,04:55:59,0.001,0.0,0.0,0.0
15/02/2023,04:56:59,-0.001,0.0,0.0,0.0
15/02/2023,04:57:59,-0.001,0.0,0.0,0.0
15/02/2023,04:58:59,0.000,0.0,0.0,0.0
15/02/2023,04:59:59,0.000,0.0,0.0,0.0
15/02/2023,05:00:59,-0.001,0.0,0.0,0.0
15/02/2023,05:01:59,0.001,0.0,0.0,0.0
15/02/2023,05:02:59,0.000,0.0,0.0,0.0
15/02/2023,05:03:59,0.000,0.0,0.0,0.0
15/02/2023,05:04:59,0.000,0.0,0.0,0.0
15/02/2023,05:05:59,0.000,0.0,0.0,0.0
15/02/2023,05:06:59,-0.000,0.0,0.0,0.0
15/02/2023,05:07:59,0.000,0.0,0.0,0.0
15/02/2023,05:09:00,0.000,0.0,0.0,0.0
15/02/2023,05:09:59,0.000,0.0,0.0,0.0
15/02/2023,05:10:59,-0.000,0.0,0.0,0.0
15/02/2023,05:11:59,0.000,0.0,0.0,0.0
15/02/2023,05:12:59,0.000,0.0,0.0,0.0
15/02/2023,05:13:59,0.000,0.0,0.0,0.0
15/02/2023,05:14:59,0.001,0.0,0.0,0.0
15/02/2023,05:15:59,0.001,0.0,0.0,0.0
15/02/2023,05:16:59,-0.001,0.0,0.0,0.0
15/02/2023,05:17:59,-0.000,0.0,0.0,0.0
15/02/2023,05:18:59,0.000,0.0,0.0,0.0
15/02/2023,05:19:59,0.000,0.0,0.0,0.0
15/02/2023,05:20:59,-0.001,0.0,0.0,0.0
15/02/2023,05:22:00,0.000,0.0,0.0,0.0
15/02/2023,05:22:59,-0.001,0.0,0.0,0.0
15/02/2023,05:23:59,0.000,0.0,0.0,0.0
15/02/2023,05:24:59,0.000,0.0,0.0,0.0
15/02/2023,05:25:59,0.000,0.0,0.0,0.0
15/02/2023,05:26:59,-0.000,0.0,0.0,0.0
15/02/2023,05:28:00,0.000,0.0,0.0,0.0
15/02/2023,05:28:59,0.000,0.0,0.0,0.0
15/02/2023,05:29:59,0.000,0.0,0.0,0.0
15/02/2023,05:31:00,0.000,0.0,0.0,0.0
15/02/2023,05:32:00,0.000,0.0,0.0,0.0
15/02/2023,05:32:59,0.001,0.0,0.0,0.0
15/02/2023,05:33:59,-0.001,0.0,0.0,0.0
15/02/2023,05:34:59,0.000,0.0,0.0,0.0
15/02/2023,05:35:59,0.000,0.0,0.0,0.0
15/02/2023,05:36:59,-0.001,0.0,0.0,0.0
15/02/2023,05:37:59,0.000,0.0,0.0,0.0
15/02/2023,05:39:00,0.001,0.0,0.0,0.0
15/02/2023,05:39:59,0.000,0.0,0.0,0.0
15/02/2023,05:40:59,0.000,0.0,0.0,0.0
15/02/2023,05:41:59,-0.001,0.0,0.0,0.0
15/02/2023,05:42:59,0.001,0.0,0.0,0.0
15/02/2023,05:43:59,0.001,0.0,0.0,0.0
15/02/2023,05:44:59,0.001,0.0,0.0,0.0
15/02/2023,05:45:59,0.000,0.0,0.0,0.0
15/02/2023,05:46:59,0.000,0.0,0.0,0.0
15/02/2023,05:48:00,0.000,0.0,0.0,0.0
15/02/2023,05:48:59,0.000,0.0,0.0,0.0
15/02/2023,05:49:59,0.000,0.0,0.0,0.0
15/02/2023,05:50:59,0.000,0.0,0.0,0.0
15/02/2023,05:51:59,-0.001,0.0,0.0,0.0
15/02/2023,05:52:59,0.000,0.0,0.0,0.0
15/02/2023,05:53:59,0.000,0.0,0.0,0.0
15/02/2023,05:54:59,0.000,0.0,0.0,0.0
15/02/2023,05:55:59,0.000,0.0,0.0,0.0
15/02/2023,05:56:59,0.000,0.0,0.0,0.0
15/02/2023,05:57:59,0.000,0.0,0.0,0.0
15/02/2023,05:58:59,-0.000,0.0,0.0,0.0
15/02/2023,05:59:59,0.000,0.0,0.0,0.0
15/02/2023,06:00:59,-0.000,0.0,0.0,0.0
15/02/2023,06:02:00,0.001,0.0,0.0,0.0
15/02/2023,06:02:59,-0.000,0.0,0.0,0.0
15/02/2023,06:04:00,-0.001,0.0,0.0,0.0
15/02/2023,06:04:59,0.000,0.0,0.0,0.0
15/02/2023,06:05:59,-0.001,0.0,0.0,0.0
15/02/2023,06:07:00,0.000,0.0,0.0,0.0
15/02/2023,06:07:59,0.000,0.0,0.0,0.0
15/02/2023,06:08:59,-0.001,0.0,0.0,0.0
15/02/2023,06:09:59,0.000,0.0,0.0,0.0
15/02/2023,06:10:59,-0.000,0.0,0.0,0.0
15/02/2023,06:11:59,-0.000,0.0,0.0,0.0
15/02/2023,06:12:59,-0.001,0.0,0.0,0.0
15/02/2023,06:13:59,-0.000,0.0,0.0,0.0
15/02/2023,06:14:59,-0.000,0.0,0.0,0.0
15/02/2023,06:16:00,-0.001,0.0,0.0,0.0
15/02/2023,06:16:59,0.000,0.0,0.0,0.0
15/02/2023,06:17:59,-0.000,0.0,0.0,0.0
15/02/2023,06:18:59,-0.001,0.0,0.0,0.0
15/02/2023,06:19:59,-0.001,0.0,0.0,0.0
15/02/2023,06:20:59,-0.000,0.0,0.0,0.0
15/02/2023,06:22:00,-0.001,0.0,0.0,0.0
15/02/2023,06:23:00,0.000,0.0,0.0,0.0
15/02/2023,06:23:59,-0.001,0.0,0.0,0.0
15/02/2023,06:25:29,-0.000,0.0,0.0,0.0
15/02/2023,06:27:00,0.001,0.0,0.0,0.0
15/02/2023,06:27:59,-0.001,0.0,0.0,0.0
15/02/2023,06:28:59,0.000,0.0,0.0,0.0
15/02/2023,06:29:59,0.000,0.0,0.0,0.0
15/02/2023,06:31:00,-0.000,0.0,0.0,0.0
15/02/2023,06:32:00,-0.000,0.0,0.0,0.0
15/02/2023,06:32:59,-0.000,0.0,0.0,0.0
15/02/2023,06:33:59,0.000,0.0,0.0,0.0
15/02/2023,06:34:59,-0.000,0.0,0.0,0.0
15/02/2023,06:36:00,-0.000,0.0,0.0,0.0
15/02/2023,06:36:59,-0.000,0.0,0.0,0.0
15/02/2023,06:37:59,-0.000,0.0,0.0,0.0
15/02/2023,06:38:59,-0.000,0.0,0.0,0.0
15/02/2023,06:40:00,-0.000,0.0,0.0,0.0
15/02/2023,06:40:59,0.001,0.0,0.0,0.0
15/02/2023,06:42:00,-0.001,0.0,0.0,0.0
15/02/2023,06:42:59,-0.000,0.0,0.0,0.0
15/02/2023,06:44:00,-0.001,0.0,0.0,0.0
15/02/2023,06:44:59,-0.000,0.0,0.0,0.0
15/02/2023,06:46:00,0.000,0.0,0.0,0.0
15/02/2023,06:46:59,-0.000,0.0,0.0,0.0
15/02/2023,06:47:59,-0.000,0.0,0.0,0.0
15/02/2023,06:49:00,0.000,0.0,0.0,0.0
15/02/2023,06:50:00,-0.001,0.0,0.0,0.0
15/02/2023,06:50:59,0.000,0.0,0.0,0.0
15/02/2023,06:51:59,-0.001,0.0,0.0,0.0
15/02/2023,06:52:59,-0.000,0.0,0.0,0.0
15/02/2023,06:54:00,-0.000,0.0,0.0,0.0
15/02/2023,06:54:59,-0.000,0.0,0.0,0.0
15/02/2023,06:55:59,0.000,0.0,0.0,0.0
15/02/2023,06:56:59,-0.000,0.0,0.0,0.0
15/02/2023,06:57:59,-0.000,0.0,0.0,0.0
15/02/2023,06:58:59,-0.000,0.0,0.0,0.0
15/02/2023,06:59:59,-0.001,0.0,0.0,0.0
15/02/2023,07:00:59,0.000,0.0,0.0,0.0
15/02/2023,07:01:59,-0.000,0.0,0.0,0.0
15/02/2023,07:03:00,0.000,0.0,0.0,0.0
15/02/2023,07:03:59,0.000,0.0,0.0,0.0
15/02/2023,07:04:59,0.000,0.0,0.0,0.0
15/02/2023,07:05:59,0.000,0.0,0.0,0.0
15/02/2023,07:06:59,-0.000,0.0,0.0,0.0
15/02/2023,07:07:59,0.001,0.0,0.0,0.0
15/02/2023,07:08:59,0.001,0.0,0.0,0.0
15/02/2023,07:10:00,0.000,0.0,0.0,0.0
15/02/2023,07:10:59,0.001,0.0,0.0,0.0
15/02/2023,07:11:59,0.000,0.0,0.0,0.0
15/02/2023,07:13:00,0.001,0.0,0.0,0.0
15/02/2023,07:13:59,0.001,0.0,0.0,0.0
15/02/2023,07:14:59,-0.001,0.0,0.0,0.0
15/02/2023,07:15:59,0.001,0.0,0.0,0.0
15/02/2023,07:16:59,0.001,0.0,0.0,0.0
15/02/2023,07:17:59,0.001,0.0,0.0,0.0
15/02/2023,07:18:59,0.002,0.0,0.0,0.0
15/02/2023,07:20:01,0.002,0.0,0.0,0.0
15/02/2023,07:20:59,0.002,0.0,0.0,0.0
15/02/2023,07:22:00,0.002,0.0,0.0,0.0
15/02/2023,07:22:59,0.002,0.0,0.0,0.0
15/02/2023,07:23:59,0.002,0.0,0.0,0.0
15/02/2023,07:24:59,0.002,0.0,0.0,0.0
15/02/2023,07:25:59,0.002,0.0,0.0,0.0
15/02/2023,07:26:59,0.003,0.0,0.0,0.0
15/02/2023,07:27:59,0.003,0.0,0.0,0.0
15/02/2023,07:28:59,0.003,0.0,0.0,0.0
15/02/2023,07:30:00,0.004,0.0,0.0,0.0
15/02/2023,07:31:00,0.004,0.0,0.0,0.0
15/02/2023,07:32:00,0.004,0.0,0.0,0.0
15/02/2023,07:32:58,0.005,0.0,0.0,0.0
15/02/2023,07:34:00,0.005,0.0,0.0,0.0
15/02/2023,07:35:00,0.005,0.0,0.0,0.0
15/02/2023,07:35:59,0.005,0.0,0.0,0.0
15/02/2023,07:36:59,0.006,0.0,0.0,0.0
15/02/2023,07:37:59,0.006,0.0,0.0,0.0
15/02/2023,07:39:00,0.006,0.0,0.0,0.0
15/02/2023,07:39:59,0.007,0.0,0.0,0.0
15/02/2023,07:40:59,0.006,0.0,0.0,0.0
15/02/2023,07:41:59,0.007,0.0,0.0,0.0
15/02/2023,07:42:59,0.008,0.0,0.001,0.001
15/02/2023,07:43:59,0.008,0.0,0.001,0.0
15/02/2023,07:44:59,0.009,0.0,0.001,0.0
15/02/2023,07:45:59,0.009,0.0,0.001,0.0
15/02/2023,07:46:59,0.010,0.0,0.001,0.0
15/02/2023,07:47:59,0.010,0.0,0.001,0.0
15/02/2023,07:48:59,0.012,0.0,0.001,0.0
15/02/2023,07:49:59,0.011,0.0,0.002,0.001
15/02/2023,07:51:00,0.011,0.0,0.002,0.0
15/02/2023,07:51:59,0.012,0.0,0.002,0.0
15/02/2023,07:53:00,0.013,0.0,0.002,0.0
15/02/2023,07:53:59,0.013,0.0,0.002,0.0
15/02/2023,07:55:00,0.013,0.0,0.003,0.001
15/02/2023,07:55:59,0.013,0.0,0.003,0.0
15/02/2023,07:57:00,0.015,0.0,0.003,0.0
15/02/2023,07:58:00,0.015,0.0,0.003,0.0
15/02/2023,07:58:59,0.016,0.0,0.004,0.001
15/02/2023,07:59:59,0.016,0.0,0.004,0.0
15/02/2023,08:00:59,0.018,0.0,0.004,0.0
15/02/2023,08:01:59,0.018,0.0,0.005,0.001
15/02/2023,08:02:59,0.019,0.0,0.005,0.0
15/02/2023,08:03:59,0.018,0.0,0.005,0.0
15/02/2023,08:04:59,0.019,0.0,0.005,0.0
15/02/2023,08:05:59,0.021,0.0,0.006,0.001
15/02/2023,08:07:00,0.021,0.0,0.006,0.0
15/02/2023,08:07:59,0.022,0.0,0.006,0.0
15/02/2023,08:09:00,0.022,0.0,0.007,0.001
15/02/2023,08:10:00,0.023,0.0,0.007,0.0
15/02/2023,08:10:59,0.024,0.0,0.008,0.001
15/02/2023,08:11:59,0.025,0.0,0.008,0.0
15/02/2023,08:12:59,0.026,0.0,0.008,0.0
15/02/2023,08:13:59,0.026,0.0,0.009,0.001
15/02/2023,08:14:59,0.027,0.0,0.009,0.0
15/02/2023,08:16:00,0.028,0.0,0.01,0.001
15/02/2023,08:16:59,0.029,0.0,0.01,0.0
15/02/2023,08:17:59,0.029,0.0,0.011,0.001
15/02/2023,08:18:59,0.030,0.0,0.011,0.0
15/02/2023,08:20:00,0.031,0.0,0.012,0.001
15/02/2023,08:21:00,0.031,0.0,0.012,0.0
15/02/2023,08:22:00,0.033,0.0,0.013,0.001
15/02/2023,08:22:59,0.033,0.0,0.013,0.0
15/02/2023,08:23:59,0.034,0.0,0.014,0.001
15/02/2023,08:25:00,0.034,0.0,0.014,0.0
15/02/2023,08:26:00,0.036,0.0,0.015,0.001
15/02/2023,08:27:00,0.037,0.0,0.016,0.001
15/02/2023,08:27:59,0.037,0.0,0.016,0.0
15/02/2023,08:28:59,0.039,0.0,0.017,0.001
15/02/2023,08:30:00,0.040,0.0,0.018,0.001
15/02/2023,08:31:00,0.041,0.0,0.018,0.0
15/02/2023,08:32:00,0.041,0.0,0.019,0.001
15/02/2023,08:32:59,0.043,0.0,0.02,0.001
15/02/2023,08:33:59,0.045,0.0,0.02,0.0
15/02/2023,08:35:00,0.046,0.0,0.021,0.001
15/02/2023,08:36:00,0.047,0.0,0.022,0.001
15/02/2023,08:37:00,0.048,0.0,0.023,0.001
15/02/2023,08:38:00,0.049,0.0,0.024,0.001
15/02/2023,08:39:00,0.050,0.0,0.024,0.0
15/02/2023,08:40:00,0.053,0.0,0.025,0.001
15/02/2023,08:40:59,0.054,0.0,0.026,0.001
15/02/2023,08:42:00,0.054,0.0,0.027,0.001
15/02/2023,08:43:00,0.055,0.0,0.028,0.001
15/02/2023,08:43:59,0.057,0.0,0.029,0.001
15/02/2023,08:45:21,0.060,0.0,0.03,0.001
15/02/2023,08:47:00,0.060,0.0,0.032,0.002
15/02/2023,08:48:00,0.063,0.0,0.033,0.001
15/02/2023,08:49:00,0.064,0.0,0.034,0.001
15/02/2023,08:50:00,0.065,0.0,0.035,0.001
15/02/2023,08:51:00,0.067,0.0,0.036,0.001
15/02/2023,08:52:00,0.068,0.0,0.037,0.001
15/02/2023,08:52:59,0.070,0.0,0.038,0.001
15/02/2023,08:54:00,0.071,0.0,0.04,0.002
15/02/2023,08:54:59,0.073,0.0,0.041,0.001
15/02/2023,08:55:59,0.073,0.0,0.042,0.001
15/02/2023,08:56:59,0.076,0.0,0.043,0.001
15/02/2023,08:58:00,0.077,0.0,0.044,0.001
15/02/2023,08:58:59,0.079,0.0,0.046,0.002
15/02/2023,09:00:00,0.080,0.0,0.047,0.001
15/02/2023,09:01:00,0.083,0.0,0.048,0.001
15/02/2023,09:01:59,0.085,0.0,0.05,0.002
15/02/2023,09:03:00,0.086,0.0,0.051,0.001
15/02/2023,09:03:59,0.087,0.0,0.053,0.002
15/02/2023,09:05:00,0.089,0.0,0.054,0.001
15/02/2023,09:05:59,0.090,0.0,0.056,0.002
15/02/2023,09:07:00,0.093,0.0,0.057,0.001
15/02/2023,09:08:00,0.093,0.0,0.059,0.002
15/02/2023,09:08:59,0.096,0.0,0.06,0.001
15/02/2023,09:10:00,0.098,0.0,0.062,0.002
15/02/2023,09:11:00,0.100,0.0,0.064,0.002
15/02/2023,09:11:59,0.102,0.0,0.065,0.001
15/02/2023,09:13:00,0.103,0.0,0.067,0.002
15/02/2023,09:14:00,0.105,0.0,0.069,0.002
15/02/2023,09:15:00,0.107,0.0,0.071,0.002
15/02/2023,09:16:00,0.109,0.0,0.072,0.001
15/02/2023,09:17:00,0.112,0.0,0.074,0.002
15/02/2023,09:18:00,0.114,0.0,0.076,0.002
15/02/2023,09:19:00,0.117,0.0,0.078,0.002
15/02/2023,09:20:00,0.119,0.0,0.08,0.002
15/02/2023,09:21:00,0.121,0.0,0.082,0.002
15/02/2023,09:21:59,0.122,0.0,0.084,0.002
15/02/2023,09:23:00,0.125,0.0,0.086,0.002
15/02/2023,09:24:00,0.126,0.0,0.088,0.002
15/02/2023,09:25:00,0.130,0.0,0.09,0.002
15/02/2023,09:26:00,0.132,0.0,0.092,0.002
15/02/2023,09:26:59,0.134,0.0,0.095,0.003
15/02/2023,09:28:00,0.135,0.0,0.097,0.002
15/02/2023,09:29:00,0.137,0.0,0.099,0.002
15/02/2023,09:30:00,0.140,0.0,0.101,0.002
15/02/2023,09:30:59,0.142,0.0,0.104,0.003
15/02/2023,09:31:59,0.143,0.0,0.106,0.002
15/02/2023,09:32:59,0.145,0.0,0.109,0.003
15/02/2023,09:34:00,0.148,0.0,0.111,0.002
15/02/2023,09:34:59,0.150,0.0,0.114,0.003
15/02/2023,09:35:59,0.151,0.0,0.116,0.002
15/02/2023,09:37:00,0.153,0.0,0.119,0.003
15/02/2023,09:38:00,0.154,0.0,0.121,0.002
15/02/2023,09:38:59,0.156,0.0,0.124,0.003
15/02/2023,09:39:59,0.159,0.0,0.126,0.002
15/02/2023,09:40:59,0.161,0.0,0.129,0.003
15/02/2023,09:41:59,0.164,0.0,0.132,0.003
15/02/2023,09:43:00,0.165,0.0,0.134,0.002
15/02/2023,09:44:00,0.168,0.0,0.137,0.003
15/02/2023,09:45:00,0.170,0.0,0.14,0.003
15/02/2023,09:45:59,0.174,0.0,0.143,0.003
15/02/2023,09:46:59,0.175,0.0,0.146,0.003
15/02/2023,09:48:00,0.177,0.0,0.149,0.003
15/02/2023,09:49:00,0.181,0.0,0.152,0.003
15/02/2023,09:49:59,0.183,0.0,0.155,0.003
15/02/2023,09:51:00,0.186,0.0,0.158,0.003
15/02/2023,09:51:59,0.187,0.0,0.161,0.003
15/02/2023,09:52:59,0.189,0.0,0.164,0.003
15/02/2023,09:54:00,0.190,0.0,0.167,0.003
15/02/2023,09:55:00,0.192,0.0,0.17,0.003
15/02/2023,09:56:00,0.193,0.0,0.174,0.004
15/02/2023,09:57:00,0.193,0.0,0.177,0.003
15/02/2023,09:58:00,0.196,0.0,0.18,0.003
15/02/2023,09:59:00,0.198,0.0,0.183,0.003
15/02/2023,09:59:59,0.202,0.0,0.187,0.004
15/02/2023,10:01:00,0.202,0.0,0.19,0.003
15/02/2023,10:01:59,0.206,0.0,0.194,0.004
15/02/2023,10:03:00,0.208,0.0,0.197,0.003
15/02/2023,10:04:00,0.212,0.0,0.201,0.004
15/02/2023,10:05:00,0.215,0.0,0.204,0.003
15/02/2023,10:05:59,0.217,1.0,0.208,0.004
15/02/2023,10:07:00,0.219,1.0,0.211,0.003
15/02/2023,10:08:00,0.223,1.0,0.215,0.004
15/02/2023,10:08:59,0.225,1.0,0.219,0.004
15/02/2023,10:09:59,0.227,1.0,0.223,0.004
15/02/2023,10:11:00,0.230,1.0,0.226,0.003
15/02/2023,10:12:00,0.232,1.0,0.23,0.004
15/02/2023,10:12:59,0.235,1.0,0.234,0.004
15/02/2023,10:13:59,0.237,1.0,0.238,0.004
15/02/2023,10:15:00,0.239,1.0,0.242,0.004
15/02/2023,10:16:00,0.240,1.0,0.246,0.004
15/02/2023,10:16:59,0.244,1.0,0.25,0.004